TimeCDT,TemperatureF,Dew PointF,Humidity,Sea Level PressureIn,VisibilityMPH,Wind Direction,Wind SpeedMPH,Gust SpeedMPH,PrecipitationIn,Events,Conditions,WindDirDegrees,DateUTC
12:52 AM,36.0,23.0,59,30.25,10.0,WNW,6.9,-,N/A,,Overcast,300,2013-03-27 05:52:00
1:52 AM,36.0,23.0,59,30.26,10.0,NW,5.8,-,N/A,,Overcast,310,2013-03-27 06:52:00
2:52 AM,35.1,23.0,61,30.26,10.0,WNW,6.9,-,N/A,,Overcast,300,2013-03-27 07:52:00
3:52 AM,35.1,23.0,61,30.26,10.0,WNW,6.9,-,N/A,,Overcast,300,2013-03-27 08:52:00
4:52 AM,34.0,23.0,64,30.26,10.0,WNW,6.9,-,N/A,,Overcast,300,2013-03-27 09:52:00
5:52 AM,34.0,23.0,64,30.27,10.0,NW,5.8,-,N/A,,Mostly Cloudy,310,2013-03-27 10:52:00
6:52 AM,34.0,23.0,64,30.28,10.0,WNW,6.9,-,N/A,,Mostly Cloudy,300,2013-03-27 11:52:00
7:52 AM,35.1,23.0,61,30.30,10.0,WNW,6.9,-,N/A,,Mostly Cloudy,300,2013-03-27 12:52:00
8:52 AM,36.0,23.0,59,30.31,10.0,WNW,6.9,-,N/A,,Mostly Cloudy,300,2013-03-27 13:52:00
9:52 AM,39.0,19.9,46,30.31,10.0,NNW,8.1,-,N/A,,Mostly Cloudy,340,2013-03-27 14:52:00
10:52 AM,41.0,19.0,41,30.32,10.0,North,9.2,-,N/A,,Mostly Cloudy,10,2013-03-27 15:52:00
11:52 AM,43.0,19.9,40,30.32,10.0,North,5.8,-,N/A,,Scattered Clouds,350,2013-03-27 16:52:00
12:52 PM,43.0,17.1,35,30.31,10.0,WNW,13.8,21.9,N/A,,Scattered Clouds,300,2013-03-27 17:52:00
1:52 PM,43.0,19.9,40,30.31,10.0,NNW,11.5,-,N/A,,Scattered Clouds,330,2013-03-27 18:52:00
2:52 PM,43.0,19.0,38,30.31,10.0,WNW,13.8,19.6,N/A,,Mostly Cloudy,300,2013-03-27 19:52:00
3:52 PM,42.1,18.0,38,30.31,10.0,WNW,10.4,-,N/A,,Scattered Clouds,290,2013-03-27 20:52:00
4:52 PM,42.1,19.0,40,30.30,10.0,West,13.8,-,N/A,,Scattered Clouds,280,2013-03-27 21:52:00
5:52 PM,41.0,19.0,41,30.31,10.0,NW,8.1,-,N/A,,Mostly Cloudy,310,2013-03-27 22:52:00
6:52 PM,39.9,18.0,41,30.30,10.0,WNW,9.2,-,N/A,,Scattered Clouds,290,2013-03-27 23:52:00
7:52 PM,39.0,19.0,45,30.30,10.0,WNW,4.6,-,N/A,,Partly Cloudy,290,2013-03-28 00:52:00
8:52 PM,37.0,19.0,48,30.31,10.0,West,4.6,-,N/A,,Clear,260,2013-03-28 01:52:00
9:52 PM,36.0,19.0,50,30.31,10.0,West,3.5,-,N/A,,Clear,260,2013-03-28 02:52:00
10:52 PM,35.1,19.0,52,30.31,10.0,West,4.6,-,N/A,,Clear,270,2013-03-28 03:52:00
11:52 PM,34.0,19.0,54,30.31,10.0,WSW,5.8,-,N/A,,Clear,250,2013-03-28 04:52:00